Location: München
(48.1351°N, 11.5820°E)
Time: 18:40:13
(UTC+02:00)

ISS - Pass Details

Date: 25 May 2021
Orbit: 417 x 422 km, 51.6° (Epoch: 16 June)

Event Time Altitude Azimuth Distance (km) Brightness Sun altitude
Rises 23:48:38 0° 291° (WNW) 2,368 0.7 -18.3°
Reaches altitude 10° 23:50:47 10° 285° (WNW) 1,502 -0.5 -18.5°
Enters shadow 23:53:41 42° 231° (SW) 614 -3.1 -18.6°
